#datetime,building,power
2024-03-23T00:00:00,mfh,22.20
2024-03-23T00:01:00,mfh,22.12
2024-03-23T00:02:00,mfh,23.62
2024-03-23T00:03:00,mfh,22.71
2024-03-23T00:04:00,mfh,23.23
2024-03-23T00:05:00,mfh,22.79
2024-03-23T00:06:00,mfh,22.96
2024-03-23T00:07:00,mfh,22.70
2024-03-23T00:08:00,mfh,22.17
2024-03-23T00:09:00,mfh,22.16
2024-03-23T00:10:00,mfh,22.26
2024-03-23T00:11:00,mfh,22.85
2024-03-23T00:12:00,mfh,22.80
2024-03-23T00:13:00,mfh,22.75
2024-03-23T00:14:00,mfh,23.21
2024-03-23T00:15:00,mfh,22.81
2024-03-23T00:16:00,mfh,22.78
2024-03-23T00:17:00,mfh,22.10
2024-03-23T00:18:00,mfh,22.30
2024-03-23T00:19:00,mfh,22.32
2024-03-23T00:20:00,mfh,23.54
2024-03-23T00:21:00,mfh,22.93
2024-03-23T00:22:00,mfh,22.86
2024-03-23T00:23:00,mfh,22.90
2024-03-23T00:24:00,mfh,22.81
2024-03-23T00:25:00,mfh,22.82
2024-03-23T00:26:00,mfh,22.18
2024-03-23T00:27:00,mfh,22.20
2024-03-23T00:28:00,mfh,22.22
2024-03-23T00:29:00,mfh,22.20
2024-03-23T00:30:00,mfh,22.79
2024-03-23T00:31:00,mfh,23.55
2024-03-23T00:32:00,mfh,22.83
2024-03-23T00:33:00,mfh,23.40
2024-03-23T00:34:00,mfh,22.76
2024-03-23T00:35:00,mfh,23.11
2024-03-23T00:36:00,mfh,22.79
2024-03-23T00:37:00,mfh,22.10
2024-03-23T00:38:00,mfh,22.84
2024-03-23T00:39:00,mfh,22.48
2024-03-23T00:40:00,mfh,22.58
2024-03-23T00:41:00,mfh,22.66
2024-03-23T00:42:00,mfh,23.56
2024-03-23T00:43:00,mfh,22.81
2024-03-23T00:44:00,mfh,22.99
2024-03-23T00:45:00,mfh,22.87
2024-03-23T00:46:00,mfh,22.30
2024-03-23T00:47:00,mfh,22.21
2024-03-23T00:48:00,mfh,22.32
2024-03-23T00:49:00,mfh,23.28
2024-03-23T00:50:00,mfh,23.03
2024-03-23T00:51:00,mfh,22.98
2024-03-23T00:52:00,mfh,21.41
2024-03-23T00:53:00,mfh,22.16
2024-03-23T00:54:00,mfh,22.09
2024-03-23T00:55:00,mfh,21.91
2024-03-23T00:56:00,mfh,21.84
2024-03-23T00:57:00,mfh,21.26
2024-03-23T00:58:00,mfh,21.23
2024-03-23T00:59:00,mfh,21.66
2024-03-23T01:00:00,mfh,22.17
2024-03-23T01:01:00,mfh,21.25
2024-03-23T01:02:00,mfh,21.37
2024-03-23T01:03:00,mfh,21.37
2024-03-23T01:04:00,mfh,21.38
2024-03-23T01:05:00,mfh,21.89
2024-03-23T01:06:00,mfh,21.45
2024-03-23T01:07:00,mfh,22.26
2024-03-23T01:08:00,mfh,20.70
2024-03-23T01:09:00,mfh,20.71
2024-03-23T01:10:00,mfh,21.30
2024-03-23T01:11:00,mfh,21.80
2024-03-23T01:12:00,mfh,21.38
2024-03-23T01:13:00,mfh,21.60
2024-03-23T01:14:00,mfh,21.96
2024-03-23T01:15:00,mfh,22.10
2024-03-23T01:16:00,mfh,22.70
2024-03-23T01:17:00,mfh,20.84
2024-03-23T01:18:00,mfh,20.77
2024-03-23T01:19:00,mfh,20.78
2024-03-23T01:20:00,mfh,20.83
2024-03-23T01:21:00,mfh,21.30
2024-03-23T01:22:00,mfh,21.84
2024-03-23T01:23:00,mfh,21.64
2024-03-23T01:24:00,mfh,21.56
2024-03-23T01:25:00,mfh,21.06
2024-03-23T01:26:00,mfh,21.09
2024-03-23T01:27:00,mfh,21.02
2024-03-23T01:28:00,mfh,20.86
2024-03-23T01:29:00,mfh,21.47
2024-03-23T01:30:00,mfh,21.10
2024-03-23T01:31:00,mfh,21.13
2024-03-23T01:32:00,mfh,21.10
2024-03-23T01:33:00,mfh,21.13
2024-03-23T01:34:00,mfh,21.13
2024-03-23T01:35:00,mfh,21.22
2024-03-23T01:36:00,mfh,23.20
2024-03-23T01:37:00,mfh,23.28
2024-03-23T01:38:00,mfh,23.06
2024-03-23T01:39:00,mfh,22.64
2024-03-23T01:40:00,mfh,22.97
2024-03-23T01:41:00,mfh,23.22
2024-03-23T01:42:00,mfh,23.20
2024-03-23T01:43:00,mfh,23.80
2024-03-23T01:44:00,mfh,23.72
2024-03-23T01:45:00,mfh,23.42
2024-03-23T01:46:00,mfh,23.95
2024-03-23T01:47:00,mfh,22.79
2024-03-23T01:48:00,mfh,22.74
2024-03-23T01:49:00,mfh,22.73
2024-03-23T01:50:00,mfh,23.20
2024-03-23T01:51:00,mfh,23.20
2024-03-23T01:52:00,mfh,23.34
2024-03-23T01:53:00,mfh,23.40
2024-03-23T01:54:00,mfh,23.35
2024-03-23T01:55:00,mfh,23.35
2024-03-23T01:56:00,mfh,23.34
2024-03-23T01:57:00,mfh,22.92
2024-03-23T01:58:00,mfh,23.46
2024-03-23T01:59:00,mfh,22.71
2024-03-23T02:00:00,mfh,23.54
2024-03-23T02:01:00,mfh,23.91
2024-03-23T02:02:00,mfh,23.21
2024-03-23T02:03:00,mfh,23.24
2024-03-23T02:04:00,mfh,23.40
2024-03-23T02:05:00,mfh,23.90
2024-03-23T02:06:00,mfh,23.50
2024-03-23T02:07:00,mfh,22.89
2024-03-23T02:08:00,mfh,22.90
2024-03-23T02:09:00,mfh,23.14
2024-03-23T02:10:00,mfh,23.22
2024-03-23T02:11:00,mfh,23.43
2024-03-23T02:12:00,mfh,23.39
2024-03-23T02:13:00,mfh,23.43
2024-03-23T02:14:00,mfh,23.45
2024-03-23T02:15:00,mfh,23.35
2024-03-23T02:16:00,mfh,23.98
2024-03-23T02:17:00,mfh,23.10
2024-03-23T02:18:00,mfh,22.68
2024-03-23T02:19:00,mfh,23.28
2024-03-23T02:20:00,mfh,23.52
2024-03-23T02:21:00,mfh,23.32
2024-03-23T02:22:00,mfh,23.34
2024-03-23T02:23:00,mfh,24.04
2024-03-23T02:24:00,mfh,23.35
2024-03-23T02:25:00,mfh,24.54
2024-03-23T02:26:00,mfh,24.03
2024-03-23T02:27:00,mfh,22.76
2024-03-23T02:28:00,mfh,22.89
2024-03-23T02:29:00,mfh,23.51
2024-03-23T02:30:00,mfh,23.83
2024-03-23T02:31:00,mfh,23.47
2024-03-23T02:32:00,mfh,23.80
2024-03-23T02:33:00,mfh,23.46
2024-03-23T02:34:00,mfh,23.65
2024-03-23T02:35:00,mfh,23.63
2024-03-23T02:36:00,mfh,22.83
2024-03-23T02:37:00,mfh,22.82
2024-03-23T02:38:00,mfh,22.82
2024-03-23T02:39:00,mfh,22.82
2024-03-23T02:40:00,mfh,23.46
2024-03-23T02:41:00,mfh,23.78
2024-03-23T02:42:00,mfh,23.38
2024-03-23T02:43:00,mfh,23.41
2024-03-23T02:44:00,mfh,23.48
2024-03-23T02:45:00,mfh,23.42
2024-03-23T02:46:00,mfh,22.68
2024-03-23T02:47:00,mfh,22.59
2024-03-23T02:48:00,mfh,22.60
2024-03-23T02:49:00,mfh,23.33
2024-03-23T02:50:00,mfh,23.29
2024-03-23T02:51:00,mfh,23.38
2024-03-23T02:52:00,mfh,23.24
2024-03-23T02:53:00,mfh,23.58
2024-03-23T02:54:00,mfh,21.16
2024-03-23T02:55:00,mfh,21.12
2024-03-23T02:56:00,mfh,21.53
2024-03-23T02:57:00,mfh,22.03
2024-03-23T02:58:00,mfh,21.36
2024-03-23T02:59:00,mfh,22.09
2024-03-23T03:00:00,mfh,22.47
2024-03-23T03:01:00,mfh,22.05
2024-03-23T03:02:00,mfh,22.67
2024-03-23T03:03:00,mfh,22.06
2024-03-23T03:04:00,mfh,21.29
2024-03-23T03:05:00,mfh,21.25
2024-03-23T03:06:00,mfh,21.21
2024-03-23T03:07:00,mfh,20.42
2024-03-23T03:08:00,mfh,20.47
2024-03-23T03:09:00,mfh,20.86
2024-03-23T03:10:00,mfh,22.24
2024-03-23T03:11:00,mfh,21.26
2024-03-23T03:12:00,mfh,21.20
2024-03-23T03:13:00,mfh,21.09
2024-03-23T03:14:00,mfh,21.59
2024-03-23T03:15:00,mfh,21.24
2024-03-23T03:16:00,mfh,21.18
2024-03-23T03:17:00,mfh,21.61
2024-03-23T03:18:00,mfh,20.97
2024-03-23T03:19:00,mfh,20.48
2024-03-23T03:20:00,mfh,21.01
2024-03-23T03:21:00,mfh,21.24
2024-03-23T03:22:00,mfh,21.68
2024-03-23T03:23:00,mfh,21.63
2024-03-23T03:24:00,mfh,21.19
2024-03-23T03:25:00,mfh,21.14
2024-03-23T03:26:00,mfh,21.85
2024-03-23T03:27:00,mfh,21.09
2024-03-23T03:28:00,mfh,20.73
2024-03-23T03:29:00,mfh,20.48
2024-03-23T03:30:00,mfh,21.14
2024-03-23T03:31:00,mfh,21.36
2024-03-23T03:32:00,mfh,21.16
2024-03-23T03:33:00,mfh,23.10
2024-03-23T03:34:00,mfh,23.07
2024-03-23T03:35:00,mfh,23.03
2024-03-23T03:36:00,mfh,23.01
2024-03-23T03:37:00,mfh,22.46
2024-03-23T03:38:00,mfh,22.38
2024-03-23T03:39:00,mfh,22.43
2024-03-23T03:40:00,mfh,22.36
2024-03-23T03:41:00,mfh,22.96
2024-03-23T03:42:00,mfh,23.56
2024-03-23T03:43:00,mfh,23.59
2024-03-23T03:44:00,mfh,23.60
2024-03-23T03:45:00,mfh,22.86
2024-03-23T03:46:00,mfh,22.93
2024-03-23T03:47:00,mfh,22.15
2024-03-23T03:48:00,mfh,22.15
2024-03-23T03:49:00,mfh,22.14
2024-03-23T03:50:00,mfh,22.75
2024-03-23T03:51:00,mfh,23.10
2024-03-23T03:52:00,mfh,23.63
2024-03-23T03:53:00,mfh,22.99
2024-03-23T03:54:00,mfh,23.89
2024-03-23T03:55:00,mfh,23.60
2024-03-23T03:56:00,mfh,23.16
2024-03-23T03:57:00,mfh,22.44
2024-03-23T03:58:00,mfh,22.41
2024-03-23T03:59:00,mfh,22.39
2024-03-23T04:00:00,mfh,22.87
2024-03-23T04:01:00,mfh,22.86
2024-03-23T04:02:00,mfh,22.94
2024-03-23T04:03:00,mfh,23.67
2024-03-23T04:04:00,mfh,23.43
2024-03-23T04:05:00,mfh,23.12
2024-03-23T04:06:00,mfh,22.62
2024-03-23T04:07:00,mfh,22.45
2024-03-23T04:08:00,mfh,22.38
2024-03-23T04:09:00,mfh,24.52
2024-03-23T04:10:00,mfh,24.86
2024-03-23T04:11:00,mfh,24.45
2024-03-23T04:12:00,mfh,24.57
2024-03-23T04:13:00,mfh,24.59
2024-03-23T04:14:00,mfh,23.63
2024-03-23T04:15:00,mfh,23.00
2024-03-23T04:16:00,mfh,22.90
2024-03-23T04:17:00,mfh,22.29
2024-03-23T04:18:00,mfh,22.15
2024-03-23T04:19:00,mfh,22.88
2024-03-23T04:20:00,mfh,22.86
2024-03-23T04:21:00,mfh,22.90
2024-03-23T04:22:00,mfh,22.89
2024-03-23T04:23:00,mfh,23.71
2024-03-23T04:24:00,mfh,23.64
2024-03-23T04:25:00,mfh,23.70
2024-03-23T04:26:00,mfh,22.57
2024-03-23T04:27:00,mfh,22.64
2024-03-23T04:28:00,mfh,22.54
2024-03-23T04:29:00,mfh,23.19
2024-03-23T04:30:00,mfh,23.63
2024-03-23T04:31:00,mfh,22.91
2024-03-23T04:32:00,mfh,22.94
2024-03-23T04:33:00,mfh,23.44
2024-03-23T04:34:00,mfh,22.90
2024-03-23T04:35:00,mfh,22.86
2024-03-23T04:36:00,mfh,22.84
2024-03-23T04:37:00,mfh,22.21
2024-03-23T04:38:00,mfh,22.68
2024-03-23T04:39:00,mfh,22.76
2024-03-23T04:40:00,mfh,22.77
2024-03-23T04:41:00,mfh,22.88
2024-03-23T04:42:00,mfh,22.89
2024-03-23T04:43:00,mfh,22.89
2024-03-23T04:44:00,mfh,22.90
2024-03-23T04:45:00,mfh,24.21
2024-03-23T04:46:00,mfh,22.58
2024-03-23T04:47:00,mfh,23.29
2024-03-23T04:48:00,mfh,23.01
2024-03-23T04:49:00,mfh,23.36
2024-03-23T04:50:00,mfh,23.23
2024-03-23T04:51:00,mfh,23.95
2024-03-23T04:52:00,mfh,23.46
2024-03-23T04:53:00,mfh,23.46
2024-03-23T04:54:00,mfh,23.49
2024-03-23T04:55:00,mfh,23.92
2024-03-23T04:56:00,mfh,20.78
2024-03-23T04:57:00,mfh,21.40
2024-03-23T04:58:00,mfh,21.53
2024-03-23T04:59:00,mfh,22.11
2024-03-23T05:00:00,mfh,22.13
2024-03-23T05:01:00,mfh,39.96
2024-03-23T05:02:00,mfh,44.01
2024-03-23T05:03:00,mfh,44.14
2024-03-23T05:04:00,mfh,44.11
2024-03-23T05:05:00,mfh,43.40
2024-03-23T05:06:00,mfh,42.54
2024-03-23T05:07:00,mfh,41.80
2024-03-23T05:08:00,mfh,41.12
2024-03-23T05:09:00,mfh,42.17
2024-03-23T05:10:00,mfh,42.15
2024-03-23T05:11:00,mfh,42.51
2024-03-23T05:12:00,mfh,42.52
2024-03-23T05:13:00,mfh,42.84
2024-03-23T05:14:00,mfh,43.31
2024-03-23T05:15:00,mfh,43.47
2024-03-23T05:16:00,mfh,42.77
2024-03-23T05:17:00,mfh,42.46
2024-03-23T05:18:00,mfh,42.59
2024-03-23T05:19:00,mfh,43.40
2024-03-23T05:20:00,mfh,42.51
2024-03-23T05:21:00,mfh,43.38
2024-03-23T05:22:00,mfh,42.61
2024-03-23T05:23:00,mfh,42.44
2024-03-23T05:24:00,mfh,42.48
2024-03-23T05:25:00,mfh,42.08
2024-03-23T05:26:00,mfh,42.73
2024-03-23T05:27:00,mfh,42.82
2024-03-23T05:28:00,mfh,42.95
2024-03-23T05:29:00,mfh,43.23
2024-03-23T05:30:00,mfh,42.93
2024-03-23T05:31:00,mfh,42.55
2024-03-23T05:32:00,mfh,42.43
2024-03-23T05:33:00,mfh,42.19
2024-03-23T05:34:00,mfh,43.11
2024-03-23T05:35:00,mfh,41.71
2024-03-23T05:36:00,mfh,41.68
2024-03-23T05:37:00,mfh,43.72
2024-03-23T05:38:00,mfh,44.28
2024-03-23T05:39:00,mfh,45.00
2024-03-23T05:40:00,mfh,44.83
2024-03-23T05:41:00,mfh,44.50
2024-03-23T05:42:00,mfh,44.38
2024-03-23T05:43:00,mfh,44.37
2024-03-23T05:44:00,mfh,43.58
2024-03-23T05:45:00,mfh,43.53
2024-03-23T05:46:00,mfh,43.92
2024-03-23T05:47:00,mfh,43.38
2024-03-23T05:48:00,mfh,43.95
2024-03-23T05:49:00,mfh,44.13
2024-03-23T05:50:00,mfh,44.05
2024-03-23T05:51:00,mfh,44.10
2024-03-23T05:52:00,mfh,44.10
2024-03-23T05:53:00,mfh,44.22
2024-03-23T05:54:00,mfh,44.16
2024-03-23T05:55:00,mfh,44.21
2024-03-23T05:56:00,mfh,43.24
2024-03-23T05:57:00,mfh,43.37
2024-03-23T05:58:00,mfh,44.46
2024-03-23T05:59:00,mfh,44.02
2024-03-23T06:00:00,mfh,44.01
2024-03-23T06:01:00,mfh,44.11
2024-03-23T06:02:00,mfh,45.01
2024-03-23T06:03:00,mfh,45.45
2024-03-23T06:04:00,mfh,43.48
2024-03-23T06:05:00,mfh,43.39
2024-03-23T06:06:00,mfh,44.48
2024-03-23T06:07:00,mfh,44.00
2024-03-23T06:08:00,mfh,44.27
2024-03-23T06:09:00,mfh,43.88
2024-03-23T06:10:00,mfh,44.49
2024-03-23T06:11:00,mfh,45.20
2024-03-23T06:12:00,mfh,44.12
2024-03-23T06:13:00,mfh,43.45
2024-03-23T06:14:00,mfh,43.61
2024-03-23T06:15:00,mfh,43.14
2024-03-23T06:16:00,mfh,43.06
2024-03-23T06:17:00,mfh,44.92
2024-03-23T06:18:00,mfh,43.25
2024-03-23T06:19:00,mfh,43.25
2024-03-23T06:20:00,mfh,43.12
2024-03-23T06:21:00,mfh,44.29
2024-03-23T06:22:00,mfh,43.94
2024-03-23T06:23:00,mfh,43.92
2024-03-23T06:24:00,mfh,43.98
2024-03-23T06:25:00,mfh,43.97
2024-03-23T06:26:00,mfh,44.10
2024-03-23T06:27:00,mfh,42.91
2024-03-23T06:28:00,mfh,42.95
2024-03-23T06:29:00,mfh,42.83
2024-03-23T06:30:00,mfh,42.86
2024-03-23T06:31:00,mfh,44.30
2024-03-23T06:32:00,mfh,43.79
2024-03-23T06:33:00,mfh,44.20
2024-03-23T06:34:00,mfh,43.77
2024-03-23T06:35:00,mfh,44.44
2024-03-23T06:36:00,mfh,43.87
2024-03-23T06:37:00,mfh,43.72
2024-03-23T06:38:00,mfh,43.28
2024-03-23T06:39:00,mfh,43.85
2024-03-23T06:40:00,mfh,44.03
2024-03-23T06:41:00,mfh,44.10
2024-03-23T06:42:00,mfh,43.72
2024-03-23T06:43:00,mfh,43.80
2024-03-23T06:44:00,mfh,43.69
2024-03-23T06:45:00,mfh,42.35
2024-03-23T06:46:00,mfh,40.96
2024-03-23T06:47:00,mfh,41.08
2024-03-23T06:48:00,mfh,40.77
2024-03-23T06:49:00,mfh,41.59
2024-03-23T06:50:00,mfh,41.66
2024-03-23T06:51:00,mfh,41.75
2024-03-23T06:52:00,mfh,41.60
2024-03-23T06:53:00,mfh,41.66
2024-03-23T06:54:00,mfh,41.67
2024-03-23T06:55:00,mfh,41.76
2024-03-23T06:56:00,mfh,41.52
2024-03-23T06:57:00,mfh,41.13
2024-03-23T06:58:00,mfh,41.75
2024-03-23T06:59:00,mfh,41.14
2024-03-23T07:00:00,mfh,41.76
2024-03-23T07:01:00,mfh,41.76
2024-03-23T07:02:00,mfh,42.53
2024-03-23T07:03:00,mfh,41.76
2024-03-23T07:04:00,mfh,41.73
2024-03-23T07:05:00,mfh,41.79
2024-03-23T07:06:00,mfh,41.92
2024-03-23T07:07:00,mfh,41.78
2024-03-23T07:08:00,mfh,42.54
2024-03-23T07:09:00,mfh,42.84
2024-03-23T07:10:00,mfh,42.79
2024-03-23T07:11:00,mfh,42.61
2024-03-23T07:12:00,mfh,41.92
2024-03-23T07:13:00,mfh,42.94
2024-03-23T07:14:00,mfh,41.94
2024-03-23T07:15:00,mfh,42.20
2024-03-23T07:16:00,mfh,41.22
2024-03-23T07:17:00,mfh,41.23
2024-03-23T07:18:00,mfh,41.20
2024-03-23T07:19:00,mfh,42.28
2024-03-23T07:20:00,mfh,41.73
2024-03-23T07:21:00,mfh,41.71
2024-03-23T07:22:00,mfh,42.89
2024-03-23T07:23:00,mfh,41.76
2024-03-23T07:24:00,mfh,41.50
2024-03-23T07:25:00,mfh,42.06
2024-03-23T07:26:00,mfh,41.47
2024-03-23T07:27:00,mfh,42.78
2024-03-23T07:28:00,mfh,43.78
2024-03-23T07:29:00,mfh,43.66
2024-03-23T07:30:00,mfh,44.09
2024-03-23T07:31:00,mfh,44.55
2024-03-23T07:32:00,mfh,44.12
2024-03-23T07:33:00,mfh,43.49
2024-03-23T07:34:00,mfh,43.38
2024-03-23T07:35:00,mfh,43.02
2024-03-23T07:36:00,mfh,42.78
2024-03-23T07:37:00,mfh,43.99
2024-03-23T07:38:00,mfh,43.89
2024-03-23T07:39:00,mfh,43.85
2024-03-23T07:40:00,mfh,44.77
2024-03-23T07:41:00,mfh,43.90
2024-03-23T07:42:00,mfh,44.25
2024-03-23T07:43:00,mfh,43.23
2024-03-23T07:44:00,mfh,43.08
2024-03-23T07:45:00,mfh,42.84
2024-03-23T07:46:00,mfh,42.86
2024-03-23T07:47:00,mfh,43.88
2024-03-23T07:48:00,mfh,43.50
2024-03-23T07:49:00,mfh,43.58
2024-03-23T07:50:00,mfh,44.11
2024-03-23T07:51:00,mfh,43.61
2024-03-23T07:52:00,mfh,44.34
2024-03-23T07:53:00,mfh,43.54
2024-03-23T07:54:00,mfh,43.28
2024-03-23T07:55:00,mfh,43.24
2024-03-23T07:56:00,mfh,44.08
2024-03-23T07:57:00,mfh,44.00
2024-03-23T07:58:00,mfh,43.97
2024-03-23T07:59:00,mfh,43.96
2024-03-23T08:00:00,mfh,44.62
2024-03-23T08:01:00,mfh,44.09
2024-03-23T08:02:00,mfh,43.67
2024-03-23T08:03:00,mfh,43.29
2024-03-23T08:04:00,mfh,43.99
2024-03-23T08:05:00,mfh,43.27
2024-03-23T08:06:00,mfh,43.97
2024-03-23T08:07:00,mfh,44.17
2024-03-23T08:08:00,mfh,44.17
2024-03-23T08:09:00,mfh,44.11
2024-03-23T08:10:00,mfh,44.15
2024-03-23T08:11:00,mfh,44.04
2024-03-23T08:12:00,mfh,43.86
2024-03-23T08:13:00,mfh,43.41
2024-03-23T08:14:00,mfh,44.02
2024-03-23T08:15:00,mfh,43.65
2024-03-23T08:16:00,mfh,43.69
2024-03-23T08:17:00,mfh,43.72
2024-03-23T08:18:00,mfh,43.66
2024-03-23T08:19:00,mfh,44.18
2024-03-23T08:20:00,mfh,44.30
2024-03-23T08:21:00,mfh,43.10
2024-03-23T08:22:00,mfh,43.00
2024-03-23T08:23:00,mfh,43.09
2024-03-23T08:24:00,mfh,45.13
2024-03-23T08:25:00,mfh,43.49
2024-03-23T08:26:00,mfh,44.12
2024-03-23T08:27:00,mfh,43.94
2024-03-23T08:28:00,mfh,45.13
2024-03-23T08:29:00,mfh,44.16
2024-03-23T08:30:00,mfh,43.05
2024-03-23T08:31:00,mfh,49.27
2024-03-23T08:32:00,mfh,49.21
2024-03-23T08:33:00,mfh,49.80
2024-03-23T08:34:00,mfh,50.39
2024-03-23T08:35:00,mfh,50.28
2024-03-23T08:36:00,mfh,49.14
2024-03-23T08:37:00,mfh,47.96
2024-03-23T08:38:00,mfh,47.72
2024-03-23T08:39:00,mfh,48.63
2024-03-23T08:40:00,mfh,47.97
2024-03-23T08:41:00,mfh,48.02
2024-03-23T08:42:00,mfh,48.07
2024-03-23T08:43:00,mfh,48.32
2024-03-23T08:44:00,mfh,48.16
2024-03-23T08:45:00,mfh,47.92
2024-03-23T08:46:00,mfh,47.64
2024-03-23T08:47:00,mfh,47.79
2024-03-23T08:48:00,mfh,47.83
2024-03-23T08:49:00,mfh,47.74
2024-03-23T08:50:00,mfh,48.05
2024-03-23T08:51:00,mfh,47.92
2024-03-23T08:52:00,mfh,47.98
2024-03-23T08:53:00,mfh,48.02
2024-03-23T08:54:00,mfh,48.44
2024-03-23T08:55:00,mfh,49.27
2024-03-23T08:56:00,mfh,48.41
2024-03-23T08:57:00,mfh,48.60
2024-03-23T08:58:00,mfh,47.83
2024-03-23T08:59:00,mfh,47.94
2024-03-23T09:00:00,mfh,47.86
2024-03-23T09:01:00,mfh,48.03
2024-03-23T09:02:00,mfh,48.09
2024-03-23T09:03:00,mfh,47.57
2024-03-23T09:04:00,mfh,47.70
2024-03-23T09:05:00,mfh,47.68
2024-03-23T09:06:00,mfh,48.65
2024-03-23T09:07:00,mfh,48.41
2024-03-23T09:08:00,mfh,48.36
2024-03-23T09:09:00,mfh,48.52
2024-03-23T09:10:00,mfh,48.38
2024-03-23T09:11:00,mfh,48.40
2024-03-23T09:12:00,mfh,48.64
2024-03-23T09:13:00,mfh,48.67
2024-03-23T09:14:00,mfh,49.19
2024-03-23T09:15:00,mfh,48.66
2024-03-23T09:16:00,mfh,48.95
2024-03-23T09:17:00,mfh,48.69
2024-03-23T09:18:00,mfh,47.83
2024-03-23T09:19:00,mfh,47.83
2024-03-23T09:20:00,mfh,50.05
2024-03-23T09:21:00,mfh,49.99
2024-03-23T09:22:00,mfh,50.84
2024-03-23T09:23:00,mfh,50.23
2024-03-23T09:24:00,mfh,50.38
2024-03-23T09:25:00,mfh,50.27
2024-03-23T09:26:00,mfh,50.43
2024-03-23T09:27:00,mfh,50.25
2024-03-23T09:28:00,mfh,50.27
2024-03-23T09:29:00,mfh,57.55
2024-03-23T09:30:00,mfh,59.49
2024-03-23T09:31:00,mfh,59.68
2024-03-23T09:32:00,mfh,59.97
2024-03-23T09:33:00,mfh,59.82
2024-03-23T09:34:00,mfh,59.81
2024-03-23T09:35:00,mfh,59.86
2024-03-23T09:36:00,mfh,58.54
2024-03-23T09:37:00,mfh,58.84
2024-03-23T09:38:00,mfh,59.01
2024-03-23T09:39:00,mfh,59.00
2024-03-23T09:40:00,mfh,59.02
2024-03-23T09:41:00,mfh,58.97
2024-03-23T09:42:00,mfh,59.21
2024-03-23T09:43:00,mfh,59.45
2024-03-23T09:44:00,mfh,59.52
2024-03-23T09:45:00,mfh,59.88
2024-03-23T09:46:00,mfh,59.43
2024-03-23T09:47:00,mfh,59.43
2024-03-23T09:48:00,mfh,59.66
2024-03-23T09:49:00,mfh,58.99
2024-03-23T09:50:00,mfh,59.08
2024-03-23T09:51:00,mfh,59.10
2024-03-23T09:52:00,mfh,58.08
2024-03-23T09:53:00,mfh,58.56
2024-03-23T09:54:00,mfh,58.57
2024-03-23T09:55:00,mfh,59.36
2024-03-23T09:56:00,mfh,58.98
2024-03-23T09:57:00,mfh,58.85
2024-03-23T09:58:00,mfh,58.92
2024-03-23T09:59:00,mfh,59.86
2024-03-23T10:00:00,mfh,60.26
2024-03-23T10:01:00,mfh,59.06
2024-03-23T10:02:00,mfh,59.12
2024-03-23T10:03:00,mfh,58.72
2024-03-23T10:04:00,mfh,58.89
2024-03-23T10:05:00,mfh,59.07
2024-03-23T10:06:00,mfh,59.38
2024-03-23T10:07:00,mfh,58.18
2024-03-23T10:08:00,mfh,58.78
2024-03-23T10:09:00,mfh,58.13
2024-03-23T10:10:00,mfh,60.22
2024-03-23T10:11:00,mfh,59.57
2024-03-23T10:12:00,mfh,59.75
2024-03-23T10:13:00,mfh,59.72
2024-03-23T10:14:00,mfh,59.42
2024-03-23T10:15:00,mfh,59.49
2024-03-23T10:16:00,mfh,59.99
2024-03-23T10:17:00,mfh,59.46
2024-03-23T10:18:00,mfh,59.75
2024-03-23T10:19:00,mfh,59.65
2024-03-23T10:20:00,mfh,59.48
2024-03-23T10:21:00,mfh,59.62
2024-03-23T10:22:00,mfh,59.96
2024-03-23T10:23:00,mfh,57.97
2024-03-23T10:24:00,mfh,58.05
2024-03-23T10:25:00,mfh,57.91
2024-03-23T10:26:00,mfh,57.40
2024-03-23T10:27:00,mfh,57.54
2024-03-23T10:28:00,mfh,58.72
2024-03-23T10:29:00,mfh,57.16
2024-03-23T10:30:00,mfh,56.85
2024-03-23T10:31:00,mfh,56.89
2024-03-23T10:32:00,mfh,57.18
2024-03-23T10:33:00,mfh,57.58
2024-03-23T10:34:00,mfh,57.14
2024-03-23T10:35:00,mfh,57.24
2024-03-23T10:36:00,mfh,57.00
2024-03-23T10:37:00,mfh,57.26
2024-03-23T10:38:00,mfh,58.13
2024-03-23T10:39:00,mfh,57.21
2024-03-23T10:40:00,mfh,57.08
2024-03-23T10:41:00,mfh,56.50
2024-03-23T10:42:00,mfh,56.58
2024-03-23T10:43:00,mfh,56.49
2024-03-23T10:44:00,mfh,57.20
2024-03-23T10:45:00,mfh,57.71
2024-03-23T10:46:00,mfh,57.86
2024-03-23T10:47:00,mfh,57.63
2024-03-23T10:48:00,mfh,57.76
2024-03-23T10:49:00,mfh,57.11
2024-03-23T10:50:00,mfh,57.46
2024-03-23T10:51:00,mfh,57.59
2024-03-23T10:52:00,mfh,57.09
2024-03-23T10:53:00,mfh,56.45
2024-03-23T10:54:00,mfh,57.01
2024-03-23T10:55:00,mfh,57.08
2024-03-23T10:56:00,mfh,57.66
2024-03-23T10:57:00,mfh,57.00
2024-03-23T10:58:00,mfh,57.12
2024-03-23T10:59:00,mfh,57.16
2024-03-23T11:00:00,mfh,56.26
2024-03-23T11:01:00,mfh,57.13
2024-03-23T11:02:00,mfh,57.14
2024-03-23T11:03:00,mfh,57.22
2024-03-23T11:04:00,mfh,57.43
2024-03-23T11:05:00,mfh,57.64
2024-03-23T11:06:00,mfh,57.46
2024-03-23T11:07:00,mfh,57.53
2024-03-23T11:08:00,mfh,57.57
2024-03-23T11:09:00,mfh,59.13
2024-03-23T11:10:00,mfh,58.86
2024-03-23T11:11:00,mfh,59.10
2024-03-23T11:12:00,mfh,58.97
2024-03-23T11:13:00,mfh,59.39
2024-03-23T11:14:00,mfh,59.10
2024-03-23T11:15:00,mfh,59.23
2024-03-23T11:16:00,mfh,58.88
2024-03-23T11:17:00,mfh,58.27
2024-03-23T11:18:00,mfh,59.04
2024-03-23T11:19:00,mfh,59.24
2024-03-23T11:20:00,mfh,59.34
2024-03-23T11:21:00,mfh,59.32
2024-03-23T11:22:00,mfh,60.47
2024-03-23T11:23:00,mfh,61.57
2024-03-23T11:24:00,mfh,60.08
2024-03-23T11:25:00,mfh,60.95
2024-03-23T11:26:00,mfh,60.82
2024-03-23T11:27:00,mfh,60.55
2024-03-23T11:28:00,mfh,60.32
2024-03-23T11:29:00,mfh,60.96
2024-03-23T11:30:00,mfh,60.37
2024-03-23T11:31:00,mfh,60.83
2024-03-23T11:32:00,mfh,60.00
2024-03-23T11:33:00,mfh,59.89
2024-03-23T11:34:00,mfh,59.55
2024-03-23T11:35:00,mfh,59.50
2024-03-23T11:36:00,mfh,60.08
2024-03-23T11:37:00,mfh,61.40
2024-03-23T11:38:00,mfh,61.37
2024-03-23T11:39:00,mfh,61.44
2024-03-23T11:40:00,mfh,61.28
2024-03-23T11:41:00,mfh,61.26
2024-03-23T11:42:00,mfh,60.00
2024-03-23T11:43:00,mfh,59.58
2024-03-23T11:44:00,mfh,59.62
2024-03-23T11:45:00,mfh,59.83
2024-03-23T11:46:00,mfh,59.55
2024-03-23T11:47:00,mfh,59.52
2024-03-23T11:48:00,mfh,59.59
2024-03-23T11:49:00,mfh,59.08
2024-03-23T11:50:00,mfh,59.04
2024-03-23T11:51:00,mfh,59.75
2024-03-23T11:52:00,mfh,60.01
2024-03-23T11:53:00,mfh,59.75
2024-03-23T11:54:00,mfh,59.94
2024-03-23T11:55:00,mfh,60.06
2024-03-23T11:56:00,mfh,59.79
2024-03-23T11:57:00,mfh,60.12
2024-03-23T11:58:00,mfh,60.41
2024-03-23T11:59:00,mfh,60.24
2024-03-23T12:00:00,mfh,59.92
2024-03-23T12:01:00,mfh,60.13
2024-03-23T12:02:00,mfh,59.79
2024-03-23T12:03:00,mfh,59.74
2024-03-23T12:04:00,mfh,60.43
2024-03-23T12:05:00,mfh,59.77
2024-03-23T12:06:00,mfh,59.92
2024-03-23T12:07:00,mfh,57.56
2024-03-23T12:08:00,mfh,57.59
2024-03-23T12:09:00,mfh,56.70
2024-03-23T12:10:00,mfh,56.02
2024-03-23T12:11:00,mfh,56.46
2024-03-23T12:12:00,mfh,57.58
2024-03-23T12:13:00,mfh,57.53
2024-03-23T12:14:00,mfh,57.58
2024-03-23T12:15:00,mfh,57.84
2024-03-23T12:16:00,mfh,61.93
2024-03-23T12:17:00,mfh,61.63
2024-03-23T12:18:00,mfh,61.62
2024-03-23T12:19:00,mfh,60.80
2024-03-23T12:20:00,mfh,60.69
2024-03-23T12:21:00,mfh,60.66
2024-03-23T12:22:00,mfh,60.69
2024-03-23T12:23:00,mfh,60.79
2024-03-23T12:24:00,mfh,60.53
2024-03-23T12:25:00,mfh,61.14
2024-03-23T12:26:00,mfh,60.24
2024-03-23T12:27:00,mfh,60.54
2024-03-23T12:28:00,mfh,60.84
2024-03-23T12:29:00,mfh,61.91
2024-03-23T12:30:00,mfh,60.92
2024-03-23T12:31:00,mfh,62.02
2024-03-23T12:32:00,mfh,60.76
2024-03-23T12:33:00,mfh,60.75
2024-03-23T12:34:00,mfh,57.29
2024-03-23T12:35:00,mfh,56.63
2024-03-23T12:36:00,mfh,57.17
2024-03-23T12:37:00,mfh,57.09
2024-03-23T12:38:00,mfh,57.18
2024-03-23T12:39:00,mfh,57.08
2024-03-23T12:40:00,mfh,57.31
2024-03-23T12:41:00,mfh,57.11
2024-03-23T12:42:00,mfh,58.33
2024-03-23T12:43:00,mfh,57.80
2024-03-23T12:44:00,mfh,56.38
2024-03-23T12:45:00,mfh,56.44
2024-03-23T12:46:00,mfh,57.13
2024-03-23T12:47:00,mfh,57.86
2024-03-23T12:48:00,mfh,57.58
2024-03-23T12:49:00,mfh,57.62
2024-03-23T12:50:00,mfh,57.44
2024-03-23T12:51:00,mfh,58.31
2024-03-23T12:52:00,mfh,57.59
2024-03-23T12:53:00,mfh,58.31
2024-03-23T12:54:00,mfh,58.83
2024-03-23T12:55:00,mfh,58.84
2024-03-23T12:56:00,mfh,58.69
2024-03-23T12:57:00,mfh,58.96
2024-03-23T12:58:00,mfh,59.13
2024-03-23T12:59:00,mfh,58.84
2024-03-23T13:00:00,mfh,59.81
2024-03-23T13:01:00,mfh,58.91
2024-03-23T13:02:00,mfh,59.64
2024-03-23T13:03:00,mfh,59.44
2024-03-23T13:04:00,mfh,60.43
2024-03-23T13:05:00,mfh,60.24
2024-03-23T13:06:00,mfh,59.88
2024-03-23T13:07:00,mfh,60.37
2024-03-23T13:08:00,mfh,59.04
2024-03-23T13:09:00,mfh,59.57
2024-03-23T13:10:00,mfh,58.92
2024-03-23T13:11:00,mfh,58.86
2024-03-23T13:12:00,mfh,58.90
2024-03-23T13:13:00,mfh,59.34
2024-03-23T13:14:00,mfh,59.51
2024-03-23T13:15:00,mfh,59.23
2024-03-23T13:16:00,mfh,59.20
2024-03-23T13:17:00,mfh,58.32
2024-03-23T13:18:00,mfh,57.97